SCP
0 0 0 0 0 0 0 0 0 0 0 0 0 -0 -0 -0 -0 -0 -0 -0 -0 -0 -0 -0 -0 -0 -0 0 -0 0 0 0 0 0 0 0 0 0 0 0 0 0 0
0 0 0 0 0 0 0 0 0 0 0 0 0 0 -0 -0 -0 -0 0 0 -0 -0 -0 -0 0 -0 -0 0 0 0 0 -0 0 0 0 0 0 0 0 0 0 0 0
0 0 0 0 0 0 1 0 0 0 0 0 0 0 0 -0 0 -0 0 0 -0 -0 -0 0 0 0 0 0 0 0 0 -0 0 0 0 0 0 0 0 0 0 0 0
0 0 0 0 0 0 0 1 0 0 0 0 0 0 0 0 0 0 0 0 0 0 0 0 0 -0 -0 0 0 0 0 0 0 0 0 0 0 0 0 0 0 0 0
0 0 0 0 0 0 0 0 0 0 0 0 0 0 0 0 0 0 0 0 0 0 0 0 0 0 0 0 0 0 0 0 0 0 0 0 0 0 0 0 0 0 0
0 0 0 0 0 0 0 0 0 0 0 0 0 0 0 0 0 0 0 0 0 0 0 0 0 0 0 0 0 0 0 0 0 0 0 0 0 0 0 0 0 0 0
0 0 0 1 0 0 1 0 0 0 0 0 0 0 0 0 0 0 0 0 0 0 0 0 0 0 0 0 0 0 0 0 0 0 0 0 0 0 0 0 0 0 0
0 0 1 1 0 1 1 0 0 0 0 0 0 0 0 0 0 0 0 0 0 0 0 0 0 0 0 0 0 0 0 0 0 0 0 0 0 0 0 0 0 0 0
0 0 1 1 0 1 1 0 0 1 1 0 0 0 0 0 0 0 0 0 0 0 0 0 0 0 0 0 0 0 0 0 0 0 0 0 0 0 0 0 0 0 0
0 0 1 1 0 0 0 1 1 1 0 0 0 0 0 0 0 0 0 0 0 0 0 0 0 0 0 0 0 0 0 0 0 0 0 0 0 0 0 0 0 0 0
1 1 1 1 0 0 0 0 0 0 0 0 0 0 0 0 0 0 0 0 0 0 0 0 0 0 0 0 0 0 0 0 0 0 0 0 0 0 0 0 0 0 0
1 1 1 1 0 0 0 0 0 0 0 0 0 0 0 0 0 0 0 0 0 0 0 0 0 0 0 0 0 0 0 0 0 0 0 0 0 0 0 0 0 0 0
0 0 0 0 0 0 0 0 0 0 0 0 0 0 0 0 0 0 0 0 0 0 0 0 0 0 0 0 0 0 0 0 0 0 0 0 0 0 0 0 0 0 0
0 0 1 0 0 0 0 0 0 0 0 0 0 0 0 0 0 0 0 0 0 0 0 0 0 0 0 0 0 0 0 0 0 0 0 0 0 0 0 0 0 0 0
0 0 1 0 0 0 0 0 0 0 0 0 0 0 0 0 0 0 0 0 0 0 0 0 0 0 0 0 0 0 0 0 0 0 0 0 0 0 0 0 0 0 0
0 0 0 0 0 0 0 0 0 0 0 0 0 0 0 0 0 0 0 0 0 0 0 0 0 0 0 0 0 0 0 0 0 0 0 0 0 0 0 0 0 0 0
0 1 0 0 0 0 0 0 0 0 0 0 0 0 0 0 0 0 0 0 0 0 0 0 0 0 0 0 0 0 0 0 0 0 0 0 0 0 0 0 0 0 0
0 0 0 0 0 0 0 0 0 0 0 0 0 0 0 0 0 0 0 0 0 0 0 0 0 0 0 0 0 0 0 0 0 0 0 0 0 0 0 0 0 0 0
0 0 0 0 0 0 0 0 0 0 0 0 0 0 0 0 0 0 0 0 0 0 0 0 0 0 0 0 0 0 0 0 0 0 0 0 0 0 0 0 0 0 0
0 0 0 0 0 0 0 0 0 0 0 0 0 0 0 0 0 0 0 0 0 0 0 0 0 0 0 0 0 0 0 0 0 0 0 0 0 0 0 0 0 0 0
0 0 0 0 0 0 0 0 0 0 0 0 0 0 0 0 0 0 0 0 0 0 0 0 0 0 0 0 0 0 0 0 0 0 0 0 0 0 0 0 0 0 0
0 0 0 0 0 0 0 0 0 0 0 0 0 0 0 0 0 0 0 0 0 0 0 0 0 0 0 0 0 0 0 0 0 0 0 0 0 0 0 0 0 0 0
0 0 0 0 0 0 0 0 0 0 0 0 0 0 0 0 0 0 0 0 0 0 0 0 0 0 0 0 0 0 0 0 0 0 0 0 0 0 0 0 0 0 0
0 0 0 0 0 0 0 0 0 0 0 0 0 0 0 0 0 0 0 0 0 0 0 0 0 0 0 0 0 0 0 0 0 0 0 0 0 0 0 0 0 0 0
0 0 0 0 0 0 0 0 0 0 0 0 0 0 0 0 0 0 0 0 0 0 0 0 0 0 0 0 0 0 0 0 0 0 0 0 0 0 0 0 0 0 0
0 0 0 0 0 0 0 0 0 0 0 0 0 0 0 0 0 0 0 0 0 0 0 0 0 0 0 0 0 0 0 0 0 0 0 0 0 0 0 0 0 -0 0
Wind_Speed_500mb
35 39 35 34 34 35 36 35 34 36 37 33 30 30 29 25 22 19 16 13 10 9 9 8 8 7 7 7 6 6 5 7 10 12 13 16 19 21 23 26 26 24 21
27 39 38 35 33 35 37 36 35 34 36 35 32 31 29 27 25 22 19 16 14 13 11 11 10 10 8 6 5 3 1 4 7 10 12 16 21 21 19 21 21 22 20
24 36 41 36 34 35 36 36 36 34 32 33 33 32 30 27 24 22 19 16 13 12 12 12 11 10 9 7 5 3 3 5 8 10 11 13 16 20 18 22 21 21 20
17 36 41 39 36 35 36 35 35 34 32 31 31 29 28 26 24 22 20 18 17 17 15 13 11 9 7 6 5 5 7 9 9 9 10 12 13 14 18 24 24 21 20
20 35 39 37 36 36 35 34 34 33 32 31 30 29 27 25 24 22 22 22 19 15 13 10 9 8 7 7 7 8 8 9 10 10 11 11 8 11 19 25 27 24 22
22 32 37 36 36 37 36 35 34 32 32 32 30 30 28 25 23 22 20 17 13 9 9 9 8 6 6 6 7 7 7 8 9 9 10 10 10 11 16 15 18 24 22
25 33 37 36 36 36 36 35 33 34 32 30 28 27 26 25 24 21 18 14 11 9 8 7 6 6 6 7 8 8 10 12 13 14 13 13 13 14 16 22 27 29 27
21 26 33 36 35 35 36 35 33 33 30 30 28 27 25 24 21 19 16 13 11 9 8 7 7 8 10 12 13 14 14 16 17 17 17 18 21 25 30 33 35 38 37
27 14 31 34 35 35 35 35 32 30 28 28 28 26 25 23 21 18 16 13 11 10 10 9 10 11 12 13 13 15 17 19 20 21 21 23 26 31 36 36 37 37 36
26 21 27 33 36 37 35 35 35 34 33 30 27 23 22 21 19 17 15 13 11 11 11 11 12 13 15 18 20 21 22 23 23 23 24 26 28 30 31 32 32 32 32
31 30 27 35 37 40 39 37 37 35 32 32 29 22 23 22 20 18 17 15 14 14 14 14 16 19 22 22 21 21 21 24 23 23 24 25 26 27 27 27 28 28 28
37 37 34 33 41 43 43 41 39 38 39 38 33 26 25 24 22 20 17 16 16 16 16 19 19 19 20 20 20 20 21 21 21 20 20 20 21 23 25 25 23 21 18
29 36 36 34 34 41 44 43 43 44 44 41 37 31 29 26 24 21 19 18 17 17 19 18 16 16 19 19 18 17 16 16 17 17 18 19 19 20 21 18 12 13 15
33 35 41 42 38 40 43 45 44 47 49 45 42 37 33 30 27 23 20 18 18 18 16 14 15 16 17 17 15 14 13 13 15 16 18 18 17 16 8 13 14 16 19
41 40 45 41 48 38 42 46 43 48 53 47 45 42 38 33 28 25 19 19 19 16 15 15 16 16 15 15 14 12 12 12 14 16 16 14 10 2 13 9 17 20 24
43 46 48 49 50 47 41 41 51 49 53 52 50 48 43 33 30 25 21 19 18 16 15 16 16 16 13 13 13 12 13 12 12 11 8 4 5 9 8 11 13 15 19
41 45 47 52 55 58 58 54 57 58 54 53 53 52 39 34 32 25 20 22 18 17 17 16 16 15 13 13 12 12 11 10 7 3 1 4 7 10 11 11 10 12 16
36 51 52 47 53 58 62 62 56 59 60 57 47 47 42 32 28 24 21 28 24 18 18 17 17 15 14 13 11 11 8 6 2 2 3 5 9 10 9 7 11 10 11
44 46 49 51 49 53 61 63 61 57 58 61 53 49 42 38 28 26 35 28 22 20 19 19 18 16 15 13 11 9 5 4 4 4 6 7 6 6 7 11 10 11 16
36 49 53 49 45 44 49 58 63 60 64 61 57 47 45 44 37 33 34 29 27 23 22 21 19 17 15 14 11 9 8 9 9 9 7 4 2 6 8 8 8 11 13
32 29 47 49 52 52 46 51 61 57 65 56 59 57 54 44 41 34 37 32 29 25 24 23 21 18 17 16 14 12 12 13 13 13 11 6 2 4 4 2 7 12 15
14 23 31 45 59 60 52 51 55 56 54 60 62 57 50 43 42 39 38 35 31 28 26 24 22 21 21 20 19 17 13 16 20 20 16 13 6 2 4 2 7 12 16
10 15 27 32 44 57 57 54 52 53 51 61 60 62 59 48 51 42 42 37 35 30 28 26 24 24 24 24 26 19 12 14 27 27 24 18 11 8 10 3 6 13 18
26 19 20 30 35 48 57 53 50 51 48 49 61 67 56 51 50 47 47 41 39 34 31 28 27 26 26 27 28 36 31 17 18 18 32 26 19 15 15 8 4 12 18
37 29 18 17 27 38 50 51 48 53 50 48 50 63 61 52 50 53 40 44 40 36 33 31 29 28 29 31 31 32 37 36 28 17 21 35 27 21 18 9 5 10 16
56 37 26 8 13 24 35 44 48 51 55 51 52 59 63 63 54 45 47 47 45 40 35 33 31 30 31 32 32 33 34 37 38 31 22 36 29 26 21 10 6 10 16
Wind_Direction_500mb
176 180 181 177 176 172 171 169 168 169 170 170 171 174 180 180 184 187 181 175 173 167 168 168 159 153 140 129 122 109 75 40 24 24 23 21 24 26 28 28 26 25 27
182 178 183 181 180 174 172 170 167 168 168 168 169 170 170 173 173 172 175 170 167 163 165 167 163 165 166 166 163 146 54 2 352 354 5 15 14 5 18 10 14 19 22
179 180 182 180 182 178 175 173 168 167 166 166 168 172 172 170 170 167 165 164 164 152 158 164 161 165 172 182 189 213 291 317 334 331 339 352 6 5 356 349 350 356 358
193 186 180 178 179 179 176 176 172 169 169 169 168 168 168 167 165 162 159 152 145 144 146 148 154 157 175 192 219 262 287 300 304 297 301 326 341 5 347 342 346 341 341
180 180 179 178 178 178 177 176 174 171 171 173 172 170 169 168 165 161 158 157 156 144 141 159 167 183 205 230 253 273 286 290 283 281 286 307 328 321 321 319 328 334 337
172 179 182 182 179 177 177 176 174 171 171 173 173 172 171 169 165 164 167 172 174 164 167 172 184 204 220 239 255 266 276 278 282 283 287 293 297 316 311 315 323 328 328
177 182 187 186 183 180 177 177 176 176 176 176 176 174 171 170 170 171 174 174 176 184 193 199 203 216 234 249 263 275 282 283 287 290 291 284 275 266 289 299 305 311 317
188 182 194 189 188 179 179 177 177 175 171 177 176 177 177 174 174 178 184 190 193 198 197 204 219 238 258 271 279 284 282 283 284 284 281 274 273 277 285 289 299 304 310
186 190 200 197 190 185 183 183 182 180 183 182 184 181 180 180 182 187 191 198 204 216 227 235 245 255 264 271 279 283 283 281 281 282 279 278 278 282 289 300 306 309 311
194 196 198 202 199 190 188 188 184 185 186 191 194 187 185 187 189 195 204 212 221 234 242 251 258 266 274 281 285 286 286 285 285 283 283 283 288 295 301 306 307 309 312
199 200 211 207 206 201 195 195 192 193 197 202 198 191 192 199 202 208 212 223 230 240 252 259 269 280 283 285 285 286 286 286 286 287 288 290 299 304 308 312 314 318 321
209 206 211 215 212 210 203 202 202 202 205 210 209 210 208 209 214 218 226 228 237 245 258 272 277 278 279 281 283 283 283 285 288 290 291 298 302 307 314 317 320 319 318
224 220 217 214 219 220 214 211 209 211 214 217 215 221 220 218 223 225 229 234 240 254 265 268 271 277 282 284 283 284 286 288 292 294 298 303 307 311 311 314 322 7 28
233 227 219 231 248 233 225 223 221 218 222 223 218 222 224 224 222 225 233 241 255 266 264 266 275 281 284 284 283 284 285 290 293 299 302 305 304 300 326 56 51 45 31
240 235 225 229 234 232 227 234 230 229 234 229 224 226 225 223 224 224 233 256 263 260 264 275 281 286 286 284 284 286 287 292 299 304 303 304 303 346 77 66 48 46 42
241 237 234 233 238 236 231 245 235 232 234 230 234 228 222 214 233 224 238 265 257 255 265 276 284 286 285 280 280 285 292 299 302 300 299 332 30 48 52 36 45 42 40
242 244 243 246 242 236 233 236 242 232 233 236 238 230 213 219 226 233 241 261 251 252 264 273 279 282 280 276 278 285 294 300 305 301 48 66 58 58 46 21 6 11 25
249 247 249 250 246 243 239 235 240 231 233 232 233 218 214 217 231 249 264 261 245 251 261 270 273 276 273 274 279 282 290 291 270 159 126 97 80 43 27 13 21 27 20
248 255 255 250 250 248 249 245 244 240 237 232 219 217 216 220 223 238 249 247 253 258 262 266 270 269 267 267 266 262 248 225 195 161 132 116 59 31 35 44 43 24 22
248 250 250 252 245 254 254 246 243 237 234 229 215 217 227 223 223 232 246 251 252 253 257 262 264 260 257 256 242 221 198 192 194 171 160 153 24 43 49 53 30 26 19
244 247 238 241 237 247 253 249 241 248 242 232 212 215 227 231 238 232 244 247 250 252 254 258 258 251 247 239 220 200 189 191 192 198 203 214 270 31 43 15 21 13 8
271 239 244 249 243 243 250 254 245 249 244 230 223 219 216 227 240 236 244 248 249 250 254 257 256 251 244 234 229 214 200 213 210 212 217 219 233 264 254 280 2 356 358
333 285 244 244 250 247 241 247 249 247 246 235 228 221 224 223 228 235 240 246 250 249 252 254 255 254 248 242 232 221 205 216 211 220 220 218 217 223 233 228 334 351 0
13 330 293 250 246 248 247 246 253 258 258 250 234 228 223 221 223 230 238 241 248 248 251 254 255 256 254 249 239 234 235 240 199 211 218 216 213 217 228 223 299 349 358
28 14 346 265 244 252 247 248 253 254 255 255 251 232 232 229 235 238 235 245 247 250 252 255 257 260 260 256 249 245 236 232 222 224 213 212 208 212 220 224 284 339 348
38 33 25 3 240 249 264 257 255 256 257 257 253 246 236 230 238 232 244 251 249 249 252 256 259 263 263 261 254 245 236 226 225 223 221 204 204 207 208 217 276 321 341
Wind_Speed_850mb
35 39 35 34 34 35 36 35 34 36 37 33 30 30 29 25 22 19 16 13 10 9 9 8 8 7 7 7 6 6 5 7 10 12 13 16 19 21 23 26 26 24 21
27 39 38 35 33 35 37 36 35 34 36 35 32 31 29 27 25 22 19 16 14 13 11 11 10 10 8 6 5 3 1 4 7 10 12 16 21 21 19 21 21 22 20
24 36 41 36 34 35 36 36 36 34 32 33 33 32 30 27 24 22 19 16 13 12 12 12 11 10 9 7 5 3 3 5 8 10 11 13 16 20 18 22 21 21 20
17 36 41 39 36 35 36 35 35 34 32 31 31 29 28 26 24 22 20 18 17 17 15 13 11 9 7 6 5 5 7 9 9 9 10 12 13 14 18 24 24 21 20
20 35 39 37 36 36 35 34 34 33 32 31 30 29 27 25 24 22 22 22 19 15 13 10 9 8 7 7 7 8 8 9 10 10 11 11 8 11 19 25 27 24 22
22 32 37 36 36 37 36 35 34 32 32 32 30 30 28 25 23 22 20 17 13 9 9 9 8 6 6 6 7 7 7 8 9 9 10 10 10 11 16 15 18 24 22
25 33 37 36 36 36 36 35 33 34 32 30 28 27 26 25 24 21 18 14 11 9 8 7 6 6 6 7 8 8 10 12 13 14 13 13 13 14 16 22 27 29 27
21 26 33 36 35 35 36 35 33 33 30 30 28 27 25 24 21 19 16 13 11 9 8 7 7 8 10 12 13 14 14 16 17 17 17 18 21 25 30 33 35 38 37
27 14 31 34 35 35 35 35 32 30 28 28 28 26 25 23 21 18 16 13 11 10 10 9 10 11 12 13 13 15 17 19 20 21 21 23 26 31 36 36 37 37 36
26 21 27 33 36 37 35 35 35 34 33 30 27 23 22 21 19 17 15 13 11 11 11 11 12 13 15 18 20 21 22 23 23 23 24 26 28 30 31 32 32 32 32
31 30 27 35 37 40 39 37 37 35 32 32 29 22 23 22 20 18 17 15 14 14 14 14 16 19 22 22 21 21 21 24 23 23 24 25 26 27 27 27 28 28 28
37 37 34 33 41 43 43 41 39 38 39 38 33 26 25 24 22 20 17 16 16 16 16 19 19 19 20 20 20 20 21 21 21 20 20 20 21 23 25 25 23 21 18
29 36 36 34 34 41 44 43 43 44 44 41 37 31 29 26 24 21 19 18 17 17 19 18 16 16 19 19 18 17 16 16 17 17 18 19 19 20 21 18 12 13 15
33 35 41 42 38 40 43 45 44 47 49 45 42 37 33 30 27 23 20 18 18 18 16 14 15 16 17 17 15 14 13 13 15 16 18 18 17 16 8 13 14 16 19
41 40 45 41 48 38 42 46 43 48 53 47 45 42 38 33 28 25 19 19 19 16 15 15 16 16 15 15 14 12 12 12 14 16 16 14 10 2 13 9 17 20 24
43 46 48 49 50 47 41 41 51 49 53 52 50 48 43 33 30 25 21 19 18 16 15 16 16 16 13 13 13 12 13 12 12 11 8 4 5 9 8 11 13 15 19
41 45 47 52 55 58 58 54 57 58 54 53 53 52 39 34 32 25 20 22 18 17 17 16 16 15 13 13 12 12 11 10 7 3 1 4 7 10 11 11 10 12 16
36 51 52 47 53 58 62 62 56 59 60 57 47 47 42 32 28 24 21 28 24 18 18 17 17 15 14 13 11 11 8 6 2 2 3 5 9 10 9 7 11 10 11
44 46 49 51 49 53 61 63 61 57 58 61 53 49 42 38 28 26 35 28 22 20 19 19 18 16 15 13 11 9 5 4 4 4 6 7 6 6 7 11 10 11 16
36 49 53 49 45 44 49 58 63 60 64 61 57 47 45 44 37 33 34 29 27 23 22 21 19 17 15 14 11 9 8 9 9 9 7 4 2 6 8 8 8 11 13
32 29 47 49 52 52 46 51 61 57 65 56 59 57 54 44 41 34 37 32 29 25 24 23 21 18 17 16 14 12 12 13 13 13 11 6 2 4 4 2 7 12 15
14 23 31 45 59 60 52 51 55 56 54 60 62 57 50 43 42 39 38 35 31 28 26 24 22 21 21 20 19 17 13 16 20 20 16 13 6 2 4 2 7 12 16
10 15 27 32 44 57 57 54 52 53 51 61 60 62 59 48 51 42 42 37 35 30 28 26 24 24 24 24 26 19 12 14 27 27 24 18 11 8 10 3 6 13 18
26 19 20 30 35 48 57 53 50 51 48 49 61 67 56 51 50 47 47 41 39 34 31 28 27 26 26 27 28 36 31 17 18 18 32 26 19 15 15 8 4 12 18
37 29 18 17 27 38 50 51 48 53 50 48 50 63 61 52 50 53 40 44 40 36 33 31 29 28 29 31 31 32 37 36 28 17 21 35 27 21 18 9 5 10 16
56 37 26 8 13 24 35 44 48 51 55 51 52 59 63 63 54 45 47 47 45 40 35 33 31 30 31 32 32 33 34 37 38 31 22 36 29 26 21 10 6 10 16
Wind_Direction_850mb
176 180 181 177 176 172 171 169 168 169 170 170 171 174 180 180 184 187 181 175 173 167 168 168 159 153 140 129 122 109 75 40 24 24 23 21 24 26 28 28 26 25 27
182 178 183 181 180 174 172 170 167 168 168 168 169 170 170 173 173 172 175 170 167 163 165 167 163 165 166 166 163 146 54 2 352 354 5 15 14 5 18 10 14 19 22
179 180 182 180 182 178 175 173 168 167 166 166 168 172 172 170 170 167 165 164 164 152 158 164 161 165 172 182 189 213 291 317 334 331 339 352 6 5 356 349 350 356 358
193 186 180 178 179 179 176 176 172 169 169 169 168 168 168 167 165 162 159 152 145 144 146 148 154 157 175 192 219 262 287 300 304 297 301 326 341 5 347 342 346 341 341
180 180 179 178 178 178 177 176 174 171 171 173 172 170 169 168 165 161 158 157 156 144 141 159 167 183 205 230 253 273 286 290 283 281 286 307 328 321 321 319 328 334 337
172 179 182 182 179 177 177 176 174 171 171 173 173 172 171 169 165 164 167 172 174 164 167 172 184 204 220 239 255 266 276 278 282 283 287 293 297 316 311 315 323 328 328
177 182 187 186 183 180 177 177 176 176 176 176 176 174 171 170 170 171 174 174 176 184 193 199 203 216 234 249 263 275 282 283 287 290 291 284 275 266 289 299 305 311 317
188 182 194 189 188 179 179 177 177 175 171 177 176 177 177 174 174 178 184 190 193 198 197 204 219 238 258 271 279 284 282 283 284 284 281 274 273 277 285 289 299 304 310
186 190 200 197 190 185 183 183 182 180 183 182 184 181 180 180 182 187 191 198 204 216 227 235 245 255 264 271 279 283 283 281 281 282 279 278 278 282 289 300 306 309 311
194 196 198 202 199 190 188 188 184 185 186 191 194 187 185 187 189 195 204 212 221 234 242 251 258 266 274 281 285 286 286 285 285 283 283 283 288 295 301 306 307 309 312
199 200 211 207 206 201 195 195 192 193 197 202 198 191 192 199 202 208 212 223 230 240 252 259 269 280 283 285 285 286 286 286 286 287 288 290 299 304 308 312 314 318 321
209 206 211 215 212 210 203 202 202 202 205 210 209 210 208 209 214 218 226 228 237 245 258 272 277 278 279 281 283 283 283 285 288 290 291 298 302 307 314 317 320 319 318
224 220 217 214 219 220 214 211 209 211 214 217 215 221 220 218 223 225 229 234 240 254 265 268 271 277 282 284 283 284 286 288 292 294 298 303 307 311 311 314 322 7 28
233 227 219 231 248 233 225 223 221 218 222 223 218 222 224 224 222 225 233 241 255 266 264 266 275 281 284 284 283 284 285 290 293 299 302 305 304 300 326 56 51 45 31
240 235 225 229 234 232 227 234 230 229 234 229 224 226 225 223 224 224 233 256 263 260 264 275 281 286 286 284 284 286 287 292 299 304 303 304 303 346 77 66 48 46 42
241 237 234 233 238 236 231 245 235 232 234 230 234 228 222 214 233 224 238 265 257 255 265 276 284 286 285 280 280 285 292 299 302 300 299 332 30 48 52 36 45 42 40
242 244 243 246 242 236 233 236 242 232 233 236 238 230 213 219 226 233 241 261 251 252 264 273 279 282 280 276 278 285 294 300 305 301 48 66 58 58 46 21 6 11 25
249 247 249 250 246 243 239 235 240 231 233 232 233 218 214 217 231 249 264 261 245 251 261 270 273 276 273 274 279 282 290 291 270 159 126 97 80 43 27 13 21 27 20
248 255 255 250 250 248 249 245 244 240 237 232 219 217 216 220 223 238 249 247 253 258 262 266 270 269 267 267 266 262 248 225 195 161 132 116 59 31 35 44 43 24 22
248 250 250 252 245 254 254 246 243 237 234 229 215 217 227 223 223 232 246 251 252 253 257 262 264 260 257 256 242 221 198 192 194 171 160 153 24 43 49 53 30 26 19
244 247 238 241 237 247 253 249 241 248 242 232 212 215 227 231 238 232 244 247 250 252 254 258 258 251 247 239 220 200 189 191 192 198 203 214 270 31 43 15 21 13 8
271 239 244 249 243 243 250 254 245 249 244 230 223 219 216 227 240 236 244 248 249 250 254 257 256 251 244 234 229 214 200 213 210 212 217 219 233 264 254 280 2 356 358
333 285 244 244 250 247 241 247 249 247 246 235 228 221 224 223 228 235 240 246 250 249 252 254 255 254 248 242 232 221 205 216 211 220 220 218 217 223 233 228 334 351 0
13 330 293 250 246 248 247 246 253 258 258 250 234 228 223 221 223 230 238 241 248 248 251 254 255 256 254 249 239 234 235 240 199 211 218 216 213 217 228 223 299 349 358
28 14 346 265 244 252 247 248 253 254 255 255 251 232 232 229 235 238 235 245 247 250 252 255 257 260 260 256 249 245 236 232 222 224 213 212 208 212 220 224 284 339 348
38 33 25 3 240 249 264 257 255 256 257 257 253 246 236 230 238 232 244 251 249 249 252 256 259 263 263 261 254 245 236 226 225 223 221 204 204 207 208 217 276 321 341